Back to catalog

DELTA 1 DEB

AliveLEO
NORAD 21500·DEBRIS·🇺🇸 United States

Launched Jun 12, 1975 from Vandenberg Space Force Base

Loading…

Next Passes (next 24 hours)

TLE

FreshSource: Space-Track

Epoch: Sep 14, 2026, 01:26 UTC

1 21500U 75052FV  26257.05991545  .00002046  00000-0  56318-3 0  9995
2 21500 100.0397 103.1413 0155471 183.4878 336.4613 14.41469832825806

Track DELTA 1 DEB in real time with AllMySat

Download on the App Store